Regional Weather Roundup
Issued by NWS Upton, NY

Home | Current Version | Previous Version | Text Only | Print | Product List | Glossary On
Versions: 1 2 3 4 5 6 7 8 9 10 11 12 13 14 15 16 17 18 19 20 21 22 23 24 25 26 27 28 29 30 31 32 33 34 35 36 37 38 39 40 41 42 43 44 45 46 47 48 49 50
000
ASUS41 KOKX 271007
RWROKX

REGIONAL WEATHER ROUNDUP
NATIONAL WEATHER SERVICE NEW YORK NY
600 AM EDT FRI MAR 27 2015

NOTE: "FAIR" INDICATES FEW OR NO CLOUDS BELOW 12,000 FEET WITH NO
SIGNIFICANT WEATHER AND/OR OBSTRUCTIONS TO VISIBILITY.

NYZ071-072-176-178-NJZ106-104-271100-
NEW YORK CITY METRO AREA


CITY           SKY/WX    TMP DP  RH WIND       PRES   REMARKS
CENTRAL PARK   LGT RAIN  39  36  89 NW5       29.78R FOG
LAGUARDIA APRT LGT RAIN  39  36  87 NW20      29.76R WCI  30
KENNEDY INTL   LGT RAIN  43  38  82 NW14      29.77R
NEWARK/LIBERTY LGT RAIN  40  37  89 NW17G23   29.77R WCI  31
BRNX BOT. GARD   N/A     39  37  93 W6        29.77S WCI  35
TETERBORO      LGT RAIN  41  36  82 NW14G20   29.76R
$$

NYZ177-179-078>081-271100-
LONG ISLAND NEW YORK

CITY           SKY/WX    TMP DP  RH WIND       PRES   REMARKS
FARMINGDALE    LGT RAIN  41  38  89 N12G18    29.72R
ISLIP          CLOUDY    40  37  89 NW15      29.69R WCI  32
SHIRLEY        CLOUDY    41  38  89 NW17G23   29.72R
WESTHAMPTON    LGT RAIN  41  38  89 NW13G23   29.71R
MONTAUK POINT    N/A     40  38  93 NW7       29.68R
$$

NYZ052-065-067-271100-
HUDSON VALLEY

CITY           SKY/WX    TMP DP  RH WIND       PRES   REMARKS
WHITE PLAINS   LGT RAIN  38  36  92 NW9       29.74R WCI  31
NEWBURGH       LGT RAIN  39  39 100 CALM      29.78R
MONTGOMERY     LGT RAIN  39  34  82 VRB3      29.75R
POUGHKEEPSIE   LGT RAIN  38  37  97 CALM      29.77R FOG
ALBANY         LGT RAIN  36  32  85 NW5       29.76R WCI  32
$$

NJZ001-105-106-008-010-013-015-019>022-104-271100-
NEW JERSEY

CITY           SKY/WX    TMP DP  RH WIND       PRES   REMARKS
NEWARK/LIBERTY LGT RAIN  40  37  89 NW17G23   29.77R WCI  31
TETERBORO      LGT RAIN  41  36  82 NW14G20   29.76R
CALDWELL       LGT RAIN  38  34  85 VRB3      29.77S
MORRISTOWN     LGT RAIN  39  36  87 NW10      29.76F WCI  32
SOMERVILLE     LGT RAIN  38  34  85 NW9       29.77R WCI  31
SUSSEX         LGT RAIN  37  32  82 CALM      29.78R
ANDOVER          N/A     35  33  92 N6        29.77S WCI  30
TRENTON        LGT RAIN  38  34  85 NW7       29.77F WCI  33
MILLVILLE      CLOUDY    43  40  89 N14G23    29.75F
ATLANTIC CITY  CLOUDY    43  40  89 NW18      29.75R
WRIGHTSTOWN    LGT RAIN  39  39 100 N8        29.76R WCI  34
TOMS RIVER     CLOUDY    43  37  81 N13G25    29.76R
BELMAR         CLOUDY    41  36  81 NW16G22   29.74R
$$

PAZ047>061-062-071-271100-
EASTERN PENNSYLVANIA

CITY           SKY/WX    TMP DP  RH WIND       PRES   REMARKS
PHILADELPHIA   LGT RAIN  41  36  82 N17       29.80S
ALLENTOWN      LGT RAIN  39  34  82 CALM      29.78F
SCRANTON       MOCLDY    37  31  78 NW6       29.78R WCI  32
$$

CTZ002-004>006-009-010-012-RIZ004-006-007-MAZ004-011-015-271100-
SOUTHERN NEW ENGLAND
 IN CT

CITY           SKY/WX    TMP DP  RH WIND       PRES   REMARKS
BRADLEY INTL   LGT RAIN  40  36  86 N6        29.72R
HARTFORD       LGT RAIN  40  37  89 VRB7      29.72R
DANBURY        CLOUDY    36  32  85 W3        29.76R FOG
WTRBRY/OXFORD  RAIN      37  30  75 N8        29.73R WCI  31
BRIDGEPORT     LGT RAIN  41  37  86 NW13      29.72R
MERIDEN        LGT RAIN  40  36  86 NW8       29.72R WCI  34
NEW HAVEN      LGT RAIN  41  37  86 NW9       29.72R
CHESTER        LGT RAIN  39  39 100 N9G18     29.69R WCI  33
GROTON         LGT RAIN  42  41  96 N12       29.67R
WILLIMANTIC    LGT RAIN  39  37  92 N7        29.70R WCI  34

 IN RI

CITY           SKY/WX    TMP DP  RH WIND       PRES   REMARKS
PROVIDENCE     LGT RAIN  42  40  92 N8        29.67R
BLOCK ISLAND   CLOUDY    43  39  87 N10       29.65R
WESTERLY       LGT RAIN  43  41  93 N10       29.67R

 IN MA

CITY           SKY/WX    TMP DP  RH WIND       PRES   REMARKS
BOSTON         LGT RAIN  41  40  96 NW8       29.68S
WORCESTER      LGT RAIN  38  34  85 NW9       29.66S WCI  31
WESTFIELD      LGT RAIN  38  36  92 CALM      29.72R
PROVINCETOWN   CLOUDY    39  36  87 N10       29.66R WCI  32
NANTUCKET      FOG       40  38  93 N15       29.61R VSB 1/2 WCI  32
$$

ANZ330-335-338-340-345-350-353-355-271100-
COASTAL MARINE OBSERVATIONS


STATION/POSITION TIME  SKY/WX   TEMP    WIND        PRES    VSBY  WAVE
                                AIR SEA DIR/SP/G                  HT/PER
                 (UTC)          (F)     (DEG/KT/KT) (MB)    (MI)  (FT/S)
NY HARB ENTRANCE 0950            41 39  340/ 14/ 17 1006.4          6/10
4S FIRE IS       0903               36                N/A           9/11
20S FIRE ISLAND  0850               38              1005.2          8/ 9
23SW MTP         0950                                 N/A           9/11
HUDSON CANYON    NOT AVBL
EXECUTION ROCKS  NOT AVBL
WESTERN LI SOUND NOT AVBL
CENTRAL LI SOUND NOT AVBL
EASTERN LI SOUND NOT AVBL
ROBBINS REEF     0900                   320/ 12/ 15 1006.2
$$


>>>>>>>>>>>>>>>>>>>>>>>>>>>> KEY <<<<<<<<<<<<<<<<<<<<<<<<<<<
>                                                          <
>     SKY/WX - SKY CONDITION/PRESENT WEATHER               <
>     TMP    - TEMPERATURE IN FAHRENHEIT                   <
>     DP     - DEWPOINT IN FAHRENHEIT                      <
>     RH     - RELATIVE HUMIDITY IN PERCENT                <
>     WIND   - DIRECTION AND SPEED IN MPH                  <
>     PRES   - MEAN SEA LEVEL PRESSURE IN INCHES OF HG     <
>     WCI    - WIND CHILL INDEX                            <
>     VSB    - VISIBILITY IN MILES                         <
>     HX     - HEAT INDEX                                  <
>     TC     - TEMPERATURE IN CELSIUS                      <
>     VRB    - VARIABLE WIND DIRECTION                     <
>                                                          <
>>>>>>>>>>>>>>>>>>>>>>>>>>>> KEY <<<<<<<<<<<<<<<<<<<<<<<<<<<




USA.gov is the U.S. government's official web portal to all federal, state and local government web resources and services.